Location: Las Infantas
(40.0014°N, 3.6820°W)
Time: 16:10:02
(UTC+00:00)

Daily predictions for brighter satellites

Satellite Brightness Start Highest point End
(mag) Time Altitude Azimuth Time Altitude Azimuth Time Altitude Azimuth
Cosmos 1315 Rocket 3.8 17:10:36 10° SSW 17:14:18 48° WNW 17:18:01 10° N
Intercosmos 24 3.7 17:15:07 10° N 17:18:50 57° E 17:22:21 10° SSE
Cosmos 1980 Rocket 4.0 17:18:13 10° ESE 17:19:56 11° E 17:21:39 10° ENE
IGS 5A 3.3 17:17:04 10° SSE 17:21:00 81° ENE 17:24:59 10° N
Cosmos 1733 2.1 17:20:31 10° NNE 17:22:09 29° E 17:23:46 10° SE
Cosmos 1544 Rocket 3.5 17:18:56 10° S 17:23:18 76° E 17:27:42 10° N
Cosmos 773 Rocket 4.2 17:20:26 10° N 17:25:30 49° ENE 17:30:34 10° SE
Cosmos 1634 Rocket 4.5 17:20:18 10° SSW 17:26:26 65° W 17:32:35 10° N
SMAP 3.1 17:24:47 10° SSE 17:29:21 60° ENE 17:33:57 10° N
ARIANE 5 R/B 2.7 17:25:29 10° SE 17:30:17 47° ENE 17:35:10 10° N
Okean 1-7 Rocket 4.4 17:28:07 10° NNE 17:31:52 27° ENE 17:35:35 10° SE
USA 290 3.3 17:29:32 10° N 17:32:17 25° ENE 17:35:01 10° ESE
Landsat 7 3.9 17:30:41 10° SSE 17:35:10 52° ENE 17:39:42 10° N
Cosmos 2263 Rocket 3.8 17:33:38 10° NNE 17:36:17 13° NE 17:38:10 11° ENE
COSMO-SKYMED 1 4.1 17:34:13 11° ENE 17:36:28 15° E 17:38:53 10° SE
CORIOLIS 4.1 17:31:33 10° SSE 17:36:52 78° ENE 17:42:13 10° N
SPOT 1/Viking Rocket 4.4 17:32:41 10° ESE 17:36:57 26° ENE 17:41:13 10° NNE
CZ-2D R/B 3.1 17:34:42 10° SE 17:37:38 39° ENE 17:40:36 10° N
Cosmos 2208 Rocket 3.9 17:34:20 10° NNW 17:39:29 67° ENE 17:44:38 10° SSE
SJ-12 3.9 17:36:57 10° SSE 17:40:34 46° ENE 17:44:12 10° N
Cosmos 1933 3.9 17:37:25 10° SSE 17:40:54 34° E 17:44:24 10° NNE
Cosmos 2360 4.3 17:35:57 10° SSW 17:41:39 84° WNW 17:47:25 10° NNE
UNK 3.9 17:37:31 10° N 17:42:07 76° WNW 17:46:38 10° SSW
Cosmos 2279 Rocket 4.3 17:36:13 10° SSW 17:42:24 72° W 17:48:38 10° N
ATLAS CENTAUR R/B 1.0 17:42:38 10° NNW 17:45:42 41° NE 17:48:41 10° SE
SKYMED 2 4.4 17:42:12 10° NE 17:46:04 31° E 17:49:55 10° SSE
Cosmos 2227 Rocket 3.1 17:43:04 10° N 17:47:45 26° NE 17:52:24 10° ESE
Helios 1A Rocket 4.4 17:48:36 13° ESE 17:48:36 13° ESE 17:49:46 10° ESE
Cosmos 1602 Rocket 3.5 17:43:50 10° N 17:48:12 62° E 17:52:28 10° SSE
NOSS 2-3 (E) 4.1 17:45:12 10° S 17:48:30 29° ESE 17:50:32 17° ENE
NOSS 2-3 (D) 4.2 17:47:48 10° S 17:51:08 29° ESE 17:53:00 19° ENE
BREEZE-M DEB (TANK) 3.5 17:45:35 10° SW 17:51:24 43° SSE 17:53:11 19° E
SJ-6F 4.5 17:50:24 10° SSE 17:54:12 49° ENE 17:58:04 10° N
Cosmos 1743 2.2 17:51:33 10° N 17:54:49 86° W 17:58:02 10° S
YAOGAN 1 3.6 17:52:00 10° ESE 17:55:18 22° ENE 17:58:36 10° NNE
Cosmos 1697 Rocket 2.7 17:55:28 10° S 18:00:59 65° ESE 18:06:23 11° NNE
NOSS 3-2 (C) 3.2 17:56:11 10° SW 18:01:02 72° NW 18:06:33 11° NNE
IRS-1C 4.2 18:00:17 10° SSE 18:05:36 82° WSW 18:10:57 10° NNW
CZ-4C R/B 3.1 18:00:09 10° NNW 18:07:13 55° NE 18:15:47 10° SE
BlueWalker 3 1.6 18:03:52 10° NW 18:07:30 77° NE 18:10:16 16° SE
Cosmos 1953 Rocket 4.3 18:06:44 10° NNE 18:10:39 30° ENE 18:14:33 10° SE
Gbstr 26 Del rocket 2.7 18:08:05 10° SW 18:12:14 80° NW 18:14:05 29° NE
MOS 1 Rocket 3.4 18:09:25 10° SSE 18:14:10 89° W 18:19:15 10° NNW
Cosmos 1503 Rocket 4.5 18:11:10 10° SSW 18:16:21 62° WNW 18:21:32 10° NNE
Meteor 1-20 Rocket 4.2 18:11:17 10° NNW 18:16:45 82° W 18:22:12 10° S
Cosmos 1461 3.6 18:15:33 10° SW 18:19:16 44° NW 18:22:01 17° NNE
Cosmos 1607 3.9 18:13:12 10° NNW 18:19:28 78° ENE 18:25:47 10° SE
Cosmos-2242 4.1 18:16:31 10° SSE 18:19:15 25° ESE 18:19:15 25° ESE
Cosmos 1825 Rocket 3.4 18:17:53 10° N 18:22:14 71° E 18:26:31 10° SSE
Cosmos 2266 Rocket 4.1 18:17:07 10° N 18:23:15 75° W 18:29:16 10° S
Cosmos 1354 Rocket 4.1 18:18:38 10° SSW 18:23:54 78° WNW 18:28:58 11° NNE
Spot 4 Rocket 4.0 18:23:12 10° SSE 18:28:10 56° ENE 18:33:10 10° N
Cosmos 1900 4.3 18:25:42 10° NNW 18:30:41 60° ENE 18:33:59 20° SE
Cosmos 2058 Rocket 3.3 18:29:19 10° SSE 18:33:33 45° E 18:33:48 44° E
Meteor 2-10 4.4 18:31:48 10° N 18:36:55 44° ENE 18:42:10 10° SSE
Cosmos 1553 Rocket 4.3 18:33:11 10° SSE 18:38:50 41° E 18:40:28 34° NE
Cosmos 1898 Rocket 3.8 18:35:08 10° S 18:39:51 40° ESE 18:39:51 40° ESE
Cosmos 2297 Rocket 3.0 18:35:27 10° NNW 18:40:56 52° WSW 18:46:22 10° S
Cosmos 1867 3.4 18:47:10 10° NNW 18:52:39 84° ENE 18:55:30 29° SE
Cosmos 2219 4.5 18:51:19 10° N 18:54:13 25° NNE 18:54:13 25° NNE
Cosmos 1076 Rocket 3.6 18:52:31 10° N 18:56:50 75° W 19:01:07 10° S
Resurs 1-3 3.7 18:55:31 10° S 18:59:47 72° WSW 19:04:06 10° NNW
Meteor 1-5 Rocket 4.3 18:55:14 10° NNW 19:00:33 69° W 19:05:59 10° S
USA 238 DEB 3.3 18:54:43 10° SSW 19:00:43 90° WNW 19:02:56 44° NNE
USA 238 3.3 18:54:49 10° SSW 19:00:49 89° SE 19:03:00 44° NE
Aureole 1 Rocket 2.9 18:56:59 10° SSW 19:00:55 88° SSW 19:00:55 88° SSW
NOSS 2-3 (C) 3.9 18:57:41 10° SW 19:00:40 47° W 19:00:40 47° W
COSMOS 2455 4.5 18:56:58 10° SSE 18:58:54 18° SSE 18:58:54 18° SSE
Cosmos 1980 Rocket 2.1 18:57:22 10° SSW 19:03:03 88° WNW 19:04:43 48° NNE
Cosmos 1937 Rocket 4.4 18:58:37 10° S 19:01:48 34° SSE 19:01:48 34° SSE
Cosmos 1244 Rocket 4.3 18:58:00 10° N 19:04:15 67° E 19:10:25 10° SSE
USA 215 4.3 19:07:18 28° NNE 19:07:18 28° NNE 19:12:35 10° NW
Cosmos 372 Rocket 3.8 19:02:11 10° SSW 19:07:21 88° WNW 19:07:54 72° NNE
Cosmos 2369 3.9 19:03:24 10° S 19:08:09 52° SE 19:08:09 52° SE
USA 81 4.1 19:06:20 10° N 19:11:36 74° W 19:16:49 10° S
COSMO-SKYMED 1 3.6 19:10:33 30° NNW 19:11:55 40° WNW 19:15:46 10° SW
NOAA 6 4.0 19:07:30 10° SSE 19:12:37 83° WSW 19:17:44 10° NNW
Cosmos 2084 Rocket 4.0 19:08:54 10° NW 19:12:39 53° W 19:12:39 53° W
Cosmos 2263 Rocket 2.4 19:15:24 10° NNW 19:19:55 57° N 19:19:55 57° N
Meteor 2-2 Rocket 4.3 19:15:47 10° SSW 19:21:27 75° W 19:22:47 53° NNW
SL-08 R/B 4.5 19:17:53 10° N 19:28:33 22° SSE 19:30:33 10° S
YAOGAN 1 4.4 19:27:14 10° SSW 19:30:58 30° W 19:34:44 10° NW
Cosmos 2227 Rocket 3.1 19:26:36 10° NW 19:31:58 46° WSW 19:37:18 10° S
CZ-4C R/B 4.2 19:48:35 10° NW 19:55:39 40° WSW 20:03:47 10° S
BREEZE-M DEB (TANK) 4.3 19:56:53 10° NW 20:02:07 84° NNE 20:02:12 84° NE
